[[{"header":{"parameterUnit":"m.s-1","parameterCategory":1,"la1":30.2991,"la2":30.254,"lo1":-89.0895,"lo2":-89.0444,"dy":0.0017,"dx":0.0017,"nx":28,"ny":28,"refTime":"2023-09-08T09:00:00:Z","depth":0,"parameterNumber":2,"parameterNumberName":"U-component_of_WINDS"},"data":[0,0,0,0,0,0,0,0,0,0,0,0,0,0,0,0,0,0,0,0,0,0,0,0,0,0,0,0,0,0,0,0,0,0,0,0,0,0,0,0,0,0,0,0,0,0,0,0,0,0,0,0,0,0,0,0,0,0,1.3488,1.3489,0,1.3624,1.3625,1.3627,1.3665,1.3664,1.3663,1.3663,1.3807,1.3811,1.3816,0,0,0,0,0,0,0,0,0,0,0,0,0,1.3266,1.327,1.3488,1.349,1.3491,1.3623,1.3625,1.3627,1.3665,1.3664,1.3663,1.3662,1.3806,1.3811,1.3816,0,0,0,0,0,0,0,0,0,0,0,0,0,1.3378,1.3271,1.3488,1.3526,1.3531,1.3623,1.3625,1.3628,1.3665,1.3664,1.3663,1.3662,1.3804,1.381,1.3817,1.3883,0,0,1.3838,1.3841,0,0,0,0,0,0,0,0,1.3372,1.3386,1.3519,1.3523,1.3529,1.3626,1.36,1.3713,1.3666,1.3614,1.3663,1.3661,1.3748,1.3759,1.3788,1.389,1.3896,1.3839,1.3843,1.3846,1.3848,0,0,0,0,0,0,0,1.3364,1.3381,1.3542,1.352,1.3527,1.3538,1.3553,1.3622,1.3686,1.3619,1.3622,1.3637,1.3751,1.3781,1.3791,1.3898,1.3839,1.3845,1.3849,1.3852,1.4061,1.4062,0,0,0,0,0,0,1.3349,1.3374,1.3537,1.3546,1.3446,1.3543,1.3559,1.3596,1.3686,1.3698,1.3638,1.3638,1.377,1.3783,1.3797,1.3879,1.3846,1.3852,1.3856,1.4059,1.4061,1.4063,0,0,0,0,0,0,1.3344,1.3363,1.3532,1.3461,1.3483,1.3548,1.3589,1.3599,1.363,1.37,1.3712,1.3657,1.3769,1.3787,1.3861,1.3885,1.3855,1.3862,1.4058,1.406,1.4062,1.4045,0,0,0,0,0,0,1.3337,1.3361,1.3386,1.3461,1.3487,1.3592,1.3591,1.3603,1.3641,1.3643,1.3721,1.3733,1.377,1.385,1.3867,1.3894,1.3867,1.4056,1.4059,1.4061,1.4043,1.4046,1.4048,0,0,0,0,0,1.3329,1.3376,1.3387,1.3406,1.3518,1.3593,1.3608,1.3649,1.3642,1.3668,1.3714,1.373,1.3879,1.3857,1.3877,1.3906,1.4054,1.4058,1.4061,1.4042,1.4046,1.4048,0,0,0,0,0,0,1.3304,1.3387,1.3399,1.3472,1.3525,1.36,1.3633,1.3651,1.3708,1.3708,1.3757,1.3775,1.3845,1.3883,1.3857,1.3974,1.3967,1.3975,1.3946,1.395,1.3952,1.3942,1.3873,0,0,0,0,0,1.3306,1.3359,1.3429,1.3487,1.3513,1.3568,1.3603,1.3629,1.3687,1.371,1.3761,1.3818,1.3878,1.3916,1.3975,1.4049,1.4067,1.4079,1.4081,1.4083,1.4088,1.4131,1.4137,1.4073,1.4073,1.4073,0,0,1.3313,1.3365,1.3395,1.3483,1.3527,1.3582,1.3587,1.3645,1.3686,1.372,1.3792,1.3831,1.3898,1.3972,1.4007,1.4006,1.411,1.4087,1.4087,1.4093,1.4135,1.4141,1.4146,1.4075,1.4075,1.4075,0,0,1.3352,1.3396,1.3449,1.3493,1.3559,1.3596,1.3608,1.3681,1.3707,1.378,1.3806,1.3857,1.3959,1.4005,1.4043,1.4099,1.4117,1.4117,1.413,1.417,1.4175,1.418,1.42,1.4207,1.4123,1.4123,1.4123,0,1.3352,1.3434,1.3474,1.353,1.3568,1.3599,1.3653,1.3695,1.3778,1.3804,1.3801,1.3929,1.3976,1.4062,1.4075,1.4104,1.4121,1.4108,1.4171,1.4176,1.4181,1.4201,1.4209,1.4122,1.4122,1.4122,1.4122,0,1.343,1.3487,1.3521,1.3599,1.3641,1.3696,1.3746,1.3784,1.3807,1.3844,1.3918,1.3976,1.4047,1.4069,1.4093,1.4158,1.4155,1.4161,1.4155,1.4186,1.4206,1.4214,1.4122,1.4122,1.4122,1.4122,0,0,1.3457,1.3556,1.3568,1.3603,1.3679,1.3724,1.3781,1.3849,1.3881,1.3937,1.3986,1.4072,1.4077,1.4119,1.4148,1.4184,1.4225,1.4185,1.4188,1.4191,1.4301,1.4296,1.4304,1.4237,1.4239,1.424,1.4295,0,1.3506,1.3607,1.3645,1.3728,1.3781,1.3811,1.3861,1.3913,1.395,1.4001,1.4043,1.4102,1.4104,1.413,1.4166,1.4212,1.4248,1.4209,1.4285,1.4287,1.4266,1.4314,1.4309,1.4359,1.4303,1.4304,1.4305,0,1.3576,1.3631,1.3719,1.3788,1.3812,1.3855,1.392,1.3969,1.403,1.4054,1.41,1.4127,1.4189,1.4179,1.4266,1.4238,1.4272,1.4299,1.4302,1.431,1.4298,1.4324,1.4375,1.4382,1.4318,1.4317,1.4316,0,1.3587,1.3683,1.3748,1.3778,1.386,1.389,1.3926,1.3985,1.4023,1.4081,1.4106,1.4171,1.4206,1.4257,1.43,1.4289,1.4383,1.4377,1.4406,1.4405,1.4424,1.4422,1.4481,1.4446,1.4446,1.4446,1.4445,0,1.3637,1.369,1.3754,1.3794,1.3854,1.3898,1.3957,1.3995,1.4047,1.4096,1.4127,1.4173,1.4228,1.4281,1.4316,1.4382,1.4398,1.442,1.4429,1.4418,1.4415,1.444,1.4438,1.4448,1.4447,1.4447,1.4446,0,1.3659,1.3704,1.3777,1.3848,1.3868,1.3909,1.3971,1.4011,1.4049,1.411,1.4128,1.4187,1.4251,1.43,1.4384,1.4407,1.4478,1.4487,1.4456,1.4461,1.4487,1.4484,1.4564,1.4577,1.4533,1.4533,1.4533,0,1.3688,1.3729,1.3804,1.3838,1.3873,1.3928,1.3967,1.4012,1.4052,1.4124,1.4156,1.4221,1.4276,1.4378,1.4429,1.4494,1.4505,1.4528,1.4515,1.4502,1.4505,1.4502,1.4506,1.453,1.4531,1.4531,1.4531,0,1.3735,1.3755,1.3809,1.387,1.3915,1.3967,1.4019,1.4045,1.41,1.4143,1.4208,1.425,1.4334,1.44,1.4469,1.4508,1.4529,1.4535,1.4545,1.4533,1.4514,1.4525,1.4461,1.4533,1.4533,1.4532,1.4532,1.4532,1.3761,1.3799,1.3857,1.3917,1.396,1.4008,1.4049,1.4091,1.4146,1.4217,1.4241,1.4308,1.4368,1.4463,1.4502,1.4556,1.4557,1.4571,1.4575,1.4578,1.4577,1.4505,1.4569,1.4569,1.4569,1.4569,1.4569,0,1.3809,1.3848,1.3902,1.3973,1.402,1.4034,1.4092,1.413,1.4188,1.4242,1.4295,1.437,1.4433,1.4489,1.4555,1.4588,1.4599,1.4604,1.4602,1.461,1.4573,1.4557,1.4593,1.4593,1.4593,1.4593,1.4593,1.4593,1.384,1.3904,1.3931,1.4018,1.4057,1.4122,1.4154,1.4198,1.4241,1.4322,1.4375,1.441,1.4466,1.4536,1.4595,1.461,1.4633,1.4635,1.4653,1.4616,1.4613,1.461,1.4596,1.464,1.464,1.4686,1.4686,1.4687]},{"header":{"parameterUnit":"m.s-1","parameterCategory":1,"la1":30.2991,"la2":30.254,"lo1":-89.0895,"lo2":-89.0444,"dy":0.0017,"dx":0.0017,"nx":28,"ny":28,"refTime":"2023-09-08T09:00:00:Z","depth":0,"parameterNumber":3,"parameterNumberName":"V-component_of_WINDS"},"data":[0,0,0,0,0,0,0,0,0,0,0,0,0,0,0,0,0,0,0,0,0,0,0,0,0,0,0,0,0,0,0,0,0,0,0,0,0,0,0,0,0,0,0,0,0,0,0,0,0,0,0,0,0,0,0,0,0,0,2.1542,2.1543,0,2.1606,2.1606,2.1607,2.1564,2.1562,2.156,2.1558,2.1621,2.1625,2.1628,0,0,0,0,0,0,0,0,0,0,0,0,0,2.1378,2.1382,2.1542,2.1543,2.1544,2.1606,2.1606,2.1607,2.1564,2.1562,2.1559,2.1557,2.162,2.1624,2.1628,0,0,0,0,0,0,0,0,0,0,0,0,0,2.1447,2.1383,2.1542,2.153,2.1529,2.1605,2.1607,2.1608,2.1565,2.1562,2.1559,2.1556,2.1619,2.1624,2.1629,2.172,0,0,2.1645,2.1647,0,0,0,0,0,0,0,0,2.1443,2.1453,2.1531,2.1531,2.153,2.1574,2.1572,2.1645,2.1565,2.1551,2.1558,2.1555,2.1608,2.1614,2.1632,2.1723,2.1726,2.1646,2.1649,2.1651,2.1653,0,0,0,0,0,0,0,2.1438,2.145,2.1567,2.1532,2.1532,2.1519,2.1526,2.1586,2.1595,2.1552,2.1549,2.1557,2.1607,2.1627,2.1633,2.1727,2.1645,2.165,2.1653,2.1655,2.1888,2.1891,0,0,0,0,0,0,2.1435,2.1446,2.1565,2.1569,2.1478,2.1525,2.1532,2.1563,2.1594,2.1596,2.156,2.1555,2.162,2.1627,2.1635,2.1738,2.1651,2.1656,2.1659,2.1885,2.1889,2.1892,0,0,0,0,0,0,2.1432,2.1446,2.1563,2.1507,2.1521,2.1531,2.1566,2.1566,2.1586,2.16,2.1601,2.1579,2.1618,2.1628,2.1698,2.174,2.1658,2.1663,2.1882,2.1887,2.1891,2.1949,0,0,0,0,0,0,2.1427,2.1445,2.1482,2.1508,2.1524,2.1626,2.1569,2.1569,2.1595,2.1589,2.1618,2.162,2.1616,2.169,2.1703,2.1746,2.1667,2.1878,2.1884,2.1889,2.1943,2.1955,2.1965,0,0,0,0,0,2.1421,2.1497,2.1484,2.1498,2.157,2.1629,2.1638,2.1632,2.1599,2.1633,2.1642,2.1619,2.1734,2.1698,2.1712,2.1757,2.1875,2.1882,2.1889,2.1938,2.1952,2.1964,0,0,0,0,0,0,2.1476,2.15,2.1486,2.1572,2.1599,2.1621,2.1666,2.1648,2.1684,2.1678,2.1668,2.1675,2.1747,2.176,2.1719,2.1843,2.1799,2.1809,2.1832,2.1845,2.1856,2.1849,2.1672,0,0,0,0,0,2.1498,2.1545,2.1563,2.1638,2.1651,2.1656,2.1682,2.1675,2.1702,2.1712,2.1726,2.1752,2.1793,2.1821,2.186,2.1946,2.1948,2.1983,2.1994,2.2003,2.201,2.2049,2.2063,2.1915,2.1915,2.1915,0,0,2.1544,2.1563,2.1593,2.1649,2.1668,2.1714,2.1666,2.1719,2.1751,2.172,2.1785,2.1797,2.1825,2.1901,2.1935,2.1913,2.2052,2.2012,2.2018,2.2021,2.2058,2.2072,2.2084,2.1919,2.1919,2.1918,0,0,2.165,2.1672,2.1732,2.1752,2.1781,2.1783,2.1798,2.1823,2.1828,2.1894,2.1869,2.1908,2.1981,2.2,2.2019,2.2127,2.2105,2.214,2.2195,2.2234,2.2245,2.2255,2.2288,2.23,2.2148,2.2149,2.2149,0,2.1703,2.1772,2.1766,2.1818,2.184,2.1814,2.1872,2.1892,2.1933,2.1948,2.1924,2.201,2.2028,2.2105,2.213,2.215,2.2162,2.2135,2.2244,2.2255,2.2264,2.2295,2.2308,2.2152,2.2152,2.2151,2.2151,0,2.1832,2.1881,2.1926,2.1963,2.1992,2.2048,2.2047,2.2076,2.2066,2.2069,2.2133,2.2153,2.2192,2.2211,2.2203,2.2285,2.227,2.2246,2.22,2.2282,2.231,2.2322,2.2157,2.2156,2.2155,2.2154,0,0,2.1975,2.2005,2.2021,2.2035,2.2063,2.2099,2.2152,2.219,2.2212,2.2242,2.2282,2.2342,2.2318,2.2339,2.2333,2.2368,2.2443,2.2338,2.2338,2.2351,2.2528,2.2542,2.2557,2.2431,2.2433,2.2435,2.2524,0,2.2077,2.2168,2.2161,2.2245,2.2286,2.226,2.2304,2.2325,2.233,2.2363,2.2368,2.2408,2.2377,2.2388,2.2422,2.2427,2.2478,2.2422,2.2464,2.2466,2.2453,2.2573,2.2589,2.2672,2.2535,2.2537,2.2539,0,2.2209,2.2238,2.2326,2.2343,2.236,2.2401,2.2431,2.2466,2.2487,2.2488,2.251,2.2496,2.2545,2.2502,2.2567,2.2528,2.2546,2.2551,2.2554,2.2553,2.2504,2.257,2.2699,2.271,2.2558,2.2556,2.2555,0,2.2295,2.2358,2.2417,2.2431,2.2454,2.2481,2.2492,2.2511,2.2532,2.256,2.2572,2.2606,2.2623,2.2648,2.2642,2.2613,2.2707,2.2664,2.2705,2.2704,2.2722,2.272,2.285,2.2743,2.2742,2.2742,2.2742,0,2.2407,2.246,2.2455,2.2491,2.2548,2.2539,2.2596,2.2603,2.2619,2.2654,2.2635,2.2667,2.266,2.2692,2.2688,2.2739,2.2749,2.2747,2.2745,2.2746,2.2745,2.2754,2.2746,2.2745,2.2745,2.2744,2.2743,0,2.2512,2.2511,2.2572,2.2587,2.2592,2.2633,2.2645,2.2677,2.2679,2.2723,2.2733,2.2735,2.2771,2.2769,2.281,2.2807,2.2868,2.2862,2.286,2.2857,2.2895,2.2889,2.3031,2.3046,2.2933,2.2934,2.2935,0,2.258,2.262,2.2638,2.2659,2.2671,2.2707,2.2727,2.2719,2.2741,2.2766,2.2794,2.2828,2.2854,2.2912,2.2916,2.2947,2.2937,2.2985,2.2941,2.294,2.2931,2.2926,2.2928,2.2992,2.2993,2.2994,2.2995,0,2.27,2.2697,2.2727,2.2756,2.2781,2.2804,2.2824,2.2843,2.2836,2.2862,2.2897,2.2917,2.2957,2.2989,2.3017,2.3027,2.3008,2.3009,2.3018,2.3018,2.3013,2.301,2.2877,2.3005,2.3004,2.3003,2.3002,2.3002,2.2785,2.2816,2.2832,2.2865,2.2879,2.2898,2.2927,2.2931,2.2961,2.2991,2.2986,2.3024,2.304,2.3075,2.3087,2.3115,2.3098,2.3114,2.3117,2.312,2.3121,2.3012,2.3121,2.3121,2.3121,2.312,2.312,0,2.2899,2.2907,2.2937,2.2965,2.2989,2.2971,2.2991,2.3013,2.3047,2.3063,2.3088,2.3126,2.3157,2.3163,2.3191,2.3212,2.3204,2.3219,2.3215,2.3216,2.3138,2.3124,2.3225,2.3225,2.3225,2.3225,2.3225,2.3225,2.296,2.301,2.3008,2.3063,2.3071,2.3107,2.312,2.3135,2.3148,2.3191,2.3215,2.3219,2.323,2.3258,2.3283,2.3284,2.3293,2.331,2.3307,2.3233,2.3222,2.3212,2.3199,2.3313,2.3314,2.3382,2.3383,2.3383]}]]